Weather History for Edinburgh Airport, United Kingdom

Change the Weather History Date:

Wednesday, December 4, 2013

  Actual Average Record
Temperature  
Mean Temperature 38 °F -  
Max Temperature 42 °F 44 °F 55 °F (2007)
Min Temperature 33 °F 34 °F 21 °F (2010)
Degree Days  
Heating Degree Days 28    
Moisture  
Dew Point 35 °F    
Average Humidity 85    
Maximum Humidity 93    
Minimum Humidity 70    
Precipitation  
Precipitation 0.00 in 0.08 in - ()
Sea Level Pressure  
Sea Level Pressure 30.20 in    
Wind  
Wind Speed 10 mph ()    
Max Wind Speed 20 mph    
Max Gust Speed -    
Visibility 6.2 miles    
Events Rain    
Averages and records for this station are not official NWS values.
T = Trace of Precipitation, MM = Missing Value Source: Averaged Metar Reports

Daily Weather History Graph

Daily Weather History Graph

Search for Another Location

Airport:

Trip Planner

Search our weather history database for the weather conditions in past years. The results will help you decide how hot, cold, wet, or windy it might be!

Date:

Astronomy

Dec. 04, 2013 Rise Set
Actual Time 8:24 AM GMT 3:42 PM GMT
Civil Twilight 7:38 AM GMT 4:28 PM GMT
Nautical Twilight 6:50 AM GMT 5:16 PM GMT
Astronomical Twilight 6:05 AM GMT 6:01 PM GMT
Moon 9:32 AM GMT (12/4) 5:44 PM GMT (12/4)
Length of Visible Light 8h 49m
Length of Day
7h 17m
Waxing Crescent, 3% of the Moon is Illuminated
Dec 4
Waxing Crescent
Dec 9
First Quarter
Dec 17
Full
Dec 25
Last Quarter
Jan 1
New

Hourly Weather History & Observations

Time (GMT) Temp. Windchill Dew Point Humidity Pressure Visibility Wind Dir Wind Speed Gust Speed Precip Events Conditions
12:20 AM 39.2 °F 35.9 °F 33.8 °F 81% 30.18 in - West 4.6 mph - N/A   Clear
12:50 AM 33.8 °F 27.7 °F 32.0 °F 93% 30.18 in - WSW 6.9 mph - N/A   Clear
1:20 AM 35.6 °F 29.9 °F 33.8 °F 93% 30.18 in - WSW 6.9 mph - N/A   Clear
1:50 AM 37.4 °F 32.1 °F 33.8 °F 87% 30.21 in - West 6.9 mph - N/A   Clear
2:20 AM 35.6 °F 29.9 °F 33.8 °F 93% 30.21 in - West 6.9 mph - N/A   Clear
2:50 AM 35.6 °F 29.9 °F 33.8 °F 93% 30.21 in - West 6.9 mph - N/A   Clear
3:20 AM 33.8 °F 27.7 °F 32.0 °F 93% 30.21 in - WSW 6.9 mph - N/A   Clear
3:50 AM 35.6 °F 29.2 °F 33.8 °F 93% 30.21 in - West 8.1 mph - N/A   Clear
4:20 AM 35.6 °F 29.2 °F 33.8 °F 93% 30.21 in - West 8.1 mph - N/A   Clear
4:50 AM 35.6 °F 28.0 °F 33.8 °F 93% 30.21 in - WSW 10.4 mph - N/A   Clear
5:20 AM 35.6 °F 29.9 °F 33.8 °F 93% 30.21 in - WSW 6.9 mph - N/A   Clear
5:50 AM 35.6 °F 28.6 °F 33.8 °F 93% 30.21 in - West 9.2 mph - N/A   Clear
6:20 AM 35.6 °F 29.9 °F 33.8 °F 93% 30.21 in - WSW 6.9 mph - N/A   Clear
6:50 AM 35.6 °F 27.5 °F 33.8 °F 93% 30.21 in 6.2 mi WSW 11.5 mph - N/A   Unknown
7:20 AM 35.6 °F 29.9 °F 33.8 °F 93% 30.21 in - West 6.9 mph - N/A   Clear
7:50 AM 35.6 °F 29.2 °F 32.0 °F 87% 30.24 in - WSW 8.1 mph - N/A   Clear
8:20 AM 35.6 °F 28.0 °F 33.8 °F 93% 30.24 in 6.2 mi WSW 10.4 mph - N/A   Partly Cloudy
8:50 AM 35.6 °F 28.6 °F 32.0 °F 87% 30.24 in - WSW 9.2 mph - N/A   Clear
9:20 AM 35.6 °F 26.6 °F 33.8 °F 93% 30.24 in - WSW 13.8 mph - N/A   Clear
9:50 AM 37.4 °F 28.9 °F 33.8 °F 87% 30.24 in 6.2 mi WSW 13.8 mph - N/A   Partly Cloudy
10:20 AM 39.2 °F 31.2 °F 35.6 °F 87% 30.24 in 6.2 mi SW 13.8 mph - N/A   Partly Cloudy
10:50 AM 41.0 °F 33.5 °F 35.6 °F 81% 30.24 in 6.2 mi WSW 13.8 mph - N/A   Partly Cloudy
11:20 AM 41.0 °F 33.9 °F 37.4 °F 87% 30.27 in 6.2 mi WSW 12.7 mph - N/A   Partly Cloudy
11:50 AM 41.0 °F 33.9 °F 37.4 °F 87% 30.24 in 6.2 mi WSW 12.7 mph - N/A   Partly Cloudy
12:20 PM 42.8 °F 36.2 °F 37.4 °F 81% 30.24 in 6.2 mi WSW 12.7 mph - N/A   Partly Cloudy
12:50 PM 42.8 °F 35.8 °F 35.6 °F 76% 30.24 in 6.2 mi West 13.8 mph - N/A   Partly Cloudy
1:20 PM 42.8 °F 34.8 °F 35.6 °F 76% 30.24 in 6.2 mi WSW 17.3 mph - N/A   Partly Cloudy
1:50 PM 42.8 °F 35.4 °F 35.6 °F 76% 30.24 in 6.2 mi WSW 15.0 mph - N/A   Partly Cloudy
2:20 PM 42.8 °F 35.1 °F 35.6 °F 76% 30.24 in 6.2 mi WSW 16.1 mph - N/A   Partly Cloudy
2:50 PM 42.8 °F 34.8 °F 35.6 °F 76% 30.24 in 6.2 mi WSW 17.3 mph - N/A   Partly Cloudy
3:20 PM 42.8 °F 35.8 °F 33.8 °F 70% 30.24 in 6.2 mi West 13.8 mph - N/A   Partly Cloudy
3:50 PM 41.0 °F 33.5 °F 35.6 °F 81% 30.21 in 6.2 mi WSW 13.8 mph - N/A   Partly Cloudy
4:20 PM 41.0 °F 32.5 °F 35.6 °F 81% 30.21 in 6.2 mi WSW 17.3 mph - N/A   Partly Cloudy
4:50 PM 41.0 °F 32.8 °F 35.6 °F 81% 30.21 in 6.2 mi WSW 16.1 mph - N/A   Scattered Clouds
5:20 PM 42.8 °F 34.8 °F 35.6 °F 76% 30.21 in 6.2 mi West 17.3 mph - N/A   Scattered Clouds
5:50 PM 41.0 °F 32.8 °F 35.6 °F 81% 30.21 in 6.2 mi WSW 16.1 mph - N/A   Scattered Clouds
6:20 PM 41.0 °F 32.2 °F 35.6 °F 81% 30.21 in 6.2 mi WSW 18.4 mph - N/A   Partly Cloudy
6:50 PM 41.0 °F 31.9 °F 35.6 °F 81% 30.21 in 6.2 mi WSW 19.6 mph - N/A   Partly Cloudy
7:20 PM 42.8 °F 35.4 °F 35.6 °F 76% 30.21 in 6.2 mi WSW 15.0 mph - N/A   Scattered Clouds
7:50 PM 41.0 °F 33.9 °F 37.4 °F 87% 30.21 in 6.2 mi SW 12.7 mph - N/A   Partly Cloudy
8:20 PM 41.0 °F 33.5 °F 37.4 °F 87% 30.18 in 6.2 mi WSW 13.8 mph - N/A   Partly Cloudy
8:50 PM 42.8 °F 35.8 °F 37.4 °F 81% 30.18 in 6.2 mi WSW 13.8 mph - N/A   Partly Cloudy
9:20 PM 42.8 °F 35.4 °F 37.4 °F 81% 30.15 in 6.2 mi WSW 15.0 mph - N/A   Partly Cloudy
9:50 PM 42.8 °F 35.4 °F 39.2 °F 87% 30.12 in 6.2 mi West 15.0 mph - N/A Rain Light Rain
10:20 PM 42.8 °F 35.4 °F 37.4 °F 81% 30.12 in 6.2 mi SW 15.0 mph - N/A   Mostly Cloudy
10:50 PM 42.8 °F 34.3 °F 39.2 °F 87% 30.09 in 6.2 mi WSW 19.6 mph - N/A Rain Light Rain
11:20 PM 42.8 °F 35.1 °F 39.2 °F 87% 30.06 in 6.2 mi WSW 16.1 mph - N/A Rain Light Rain
11:50 PM 42.8 °F 34.3 °F 39.2 °F 87% 30.04 in 6.2 mi WSW 19.6 mph - N/A Rain Light Rain